RH
100 100 99 100 100 99 96 91 86 90 96 96 81 68 67 78 66 68 67 75 92 45 10 9 9 9 8 9 18 32 84 97 97 96 96 98 100 100
100 100 100 100 100 100 100 99 95 92 90 89 87 87 76 75 92 98 97 68 17 13 10 11 12 11 12 16 50 96 100 99 99 100 100 100 99 100
100 100 100 98 100 98 94 97 97 90 89 92 84 86 97 100 97 55 22 20 18 15 14 15 12 14 24 52 74 92 97 100 100 100 100 100 100 100
100 100 100 100 100 97 94 90 82 83 97 100 99 100 89 28 15 16 17 16 27 16 20 14 15 37 39 43 72 76 90 98 98 100 100 100 100 100
100 100 100 96 87 78 76 90 99 100 98 92 44 23 20 18 24 39 51 40 39 25 31 46 44 50 44 48 48 47 49 50 70 87 92 97 98 100
99 88 74 72 78 94 99 99 97 87 52 23 22 25 31 48 75 81 79 74 44 31 48 54 63 66 65 61 46 48 46 48 52 61 89 96 99 100
77 79 89 100 99 100 98 84 36 18 19 21 34 80 88 73 84 83 75 72 55 60 73 62 86 59 49 45 46 48 56 76 92 99 100 100 100 100
99 100 99 100 100 76 17 15 14 15 17 61 84 63 89 86 82 77 79 64 96 61 74 58 59 53 49 48 49 54 57 60 71 96 100 100 100 100
99 99 96 38 22 16 14 14 16 22 40 58 80 86 80 78 78 64 81 96 88 66 86 90 57 68 58 56 57 58 60 65 56 58 69 97 100 100
43 23 19 16 15 14 16 25 42 48 66 69 66 42 35 54 80 84 91 79 76 68 97 98 63 76 60 57 58 56 54 56 58 59 62 90 98 100
17 15 14 17 18 17 17 32 41 58 53 38 30 35 42 56 65 68 68 83 99 70 74 82 76 85 66 53 52 58 64 66 66 67 71 93 100 100
17 19 19 17 16 18 20 21 22 31 33 52 68 65 70 68 70 75 80 86 99 92 82 96 80 88 99 62 63 65 60 65 70 74 70 94 100 100
21 23 19 16 17 19 21 23 25 27 34 55 66 68 71 79 83 86 89 91 93 87 75 100 92 86 97 93 64 65 67 66 67 70 69 69 72 92
16 16 18 20 22 23 25 27 30 34 52 67 70 73 74 72 72 74 79 83 85 81 74 86 92 92 99 91 84 69 69 70 70 70 77 84 83 82
19 23 24 24 25 26 27 31 40 63 71 72 71 72 74 75 73 74 76 78 79 76 74 79 90 94 99 96 88 81 84 68 66 76 83 93 98 99
27 26 26 27 28 28 34 48 68 73 75 76 75 77 78 76 75 80 80 81 78 69 73 78 92 100 100 100 100 82 80 100 77 78 90 97 96 90
26 29 34 36 40 47 57 73 75 76 79 80 82 82 82 83 83 85 85 82 83 83 80 80 90 100 100 100 96 90 88 86 84 89 100 100 100 92
30 34 37 38 45 61 77 78 78 80 82 84 86 86 87 89 89 87 89 94 100 100 96 88 100 100 100 95 91 86 93 98 92 95 100 100 90 76
34 37 36 39 55 77 78 80 81 84 85 86 87 88 88 89 92 92 95 94 97 100 100 100 100 100 98 100 92 99 96 86 91 92 100 100 100 73
35 37 36 38 61 78 79 81 84 85 87 89 90 91 94 96 96 99 100 100 100 100 100 100 100 99 100 100 100 83 85 96 96 91 90 90 89 76
39 38 38 36 52 76 79 82 83 84 88 90 92 93 95 98 98 100 100 100 100 100 100 91 88 90 96 98 100 97 89 93 96 97 95 97 89 84
40 39 39 38 38 64 75 78 78 79 85 91 95 96 97 98 99 100 100 100 100 98 95 91 88 93 98 100 100 100 95 84 87 93 96 97 97 96
40 40 39 39 37 47 66 72 74 75 83 91 95 95 96 97 97 100 100 100 97 93 92 96 92 95 100 100 100 99 100 92 92 93 85 91 96 96
Wind_Speed
38 42 45 44 40 38 34 27 26 21 21 23 19 21 25 26 25 27 27 28 33 34 33 34 33 32 33 32 30 28 24 23 23 23 24 25 25 24
38 37 39 40 38 32 30 25 18 15 16 18 18 20 20 22 25 28 27 26 31 30 30 31 31 31 30 28 26 23 24 24 23 23 24 25 25 25
33 32 32 31 27 24 20 18 13 12 16 22 18 22 24 22 21 23 24 26 29 30 29 29 29 28 27 26 25 25 24 24 23 24 24 25 25 25
27 26 23 20 16 15 12 13 11 11 14 18 18 18 17 17 20 24 26 26 26 28 26 27 25 24 25 24 25 25 25 25 25 26 26 26 26 27
17 16 14 11 9 8 8 11 11 11 11 12 15 15 18 19 20 21 21 23 23 25 24 24 23 24 21 23 22 24 25 26 26 26 26 26 26 27
12 8 6 6 6 8 8 9 9 10 11 12 14 15 17 15 16 20 21 21 27 24 24 22 20 19 22 23 23 25 26 25 25 26 26 26 27 27
7 6 6 4 4 5 6 7 8 9 10 13 14 11 13 16 13 18 24 23 24 24 21 17 17 24 23 23 24 25 24 25 25 26 27 27 28 29
7 5 3 5 4 4 6 8 10 12 13 12 13 16 12 14 18 20 21 24 24 20 20 25 23 25 25 25 25 25 27 28 26 26 26 25 26 26
4 4 2 1 5 7 9 11 12 12 12 13 15 15 17 16 19 21 19 20 23 25 23 28 25 29 27 29 29 31 29 26 23 24 25 25 25 26
3 2 3 5 7 9 10 12 13 13 13 14 16 18 18 16 16 17 20 23 25 22 19 27 27 28 31 34 33 27 23 24 24 22 23 24 26 28
2 4 6 7 10 11 11 12 13 13 14 17 16 13 12 13 14 17 18 20 22 26 23 18 29 32 36 35 29 26 29 28 27 25 24 26 26 28
5 7 7 9 11 11 12 13 14 14 14 12 12 11 11 12 12 15 15 18 19 26 17 23 32 31 25 39 36 34 31 30 28 28 26 26 26 28
7 9 12 12 13 13 13 13 12 13 11 11 10 10 10 11 13 14 15 19 22 27 28 22 33 33 31 37 41 38 34 34 33 32 28 22 20 21
10 11 12 13 13 13 12 12 11 10 9 9 11 11 12 13 14 14 16 19 23 25 24 24 29 28 29 35 42 41 38 36 32 29 22 26 23 23
11 12 14 14 14 12 12 10 8 7 8 10 11 12 14 15 14 15 18 22 25 25 23 21 24 25 26 31 37 41 40 37 25 29 29 28 28 27
15 15 14 13 12 10 8 6 6 7 9 11 13 15 16 16 15 16 22 26 29 30 28 24 23 22 27 30 33 37 35 35 34 33 33 33 31 29
15 15 13 12 9 7 6 6 7 8 10 12 15 17 17 17 16 18 23 26 29 33 33 28 25 22 26 30 33 35 34 36 36 37 37 38 36 31
14 13 11 9 7 6 6 7 8 9 11 14 16 17 19 18 19 21 25 28 30 30 30 30 30 31 31 31 26 33 35 38 37 34 31 34 37 31
13 11 11 8 7 7 7 8 9 10 12 15 17 19 19 19 21 23 26 30 32 29 31 31 30 29 33 35 34 27 33 36 34 36 34 34 36 36
13 12 11 10 9 9 9 10 11 12 14 16 19 20 21 22 23 24 27 31 32 32 34 31 28 30 33 38 44 43 32 33 36 39 37 35 35 33
14 13 12 11 11 11 12 13 14 15 17 19 21 22 22 24 24 24 27 30 29 32 35 35 33 33 34 34 38 41 41 37 36 35 38 37 36 36
14 14 13 13 13 13 14 15 16 17 19 20 22 23 23 24 25 25 28 32 34 35 37 37 38 36 36 36 40 43 45 42 37 35 32 30 30 30
16 15 15 15 15 15 15 16 18 19 20 22 24 24 23 26 26 27 30 32 34 36 37 39 37 36 38 35 38 44 41 42 42 40 37 31 30 31
Wind_Direction
248 243 246 250 250 246 249 244 248 239 241 246 244 246 253 259 260 265 273 283 289 292 298 298 298 297 297 296 295 293 291 289 288 287 287 286 284 283
251 250 250 251 249 247 250 252 249 257 265 277 266 265 259 262 270 274 275 281 282 290 297 297 297 298 297 295 295 292 288 287 286 285 285 284 281 282
250 248 247 251 252 252 256 266 275 283 277 261 260 265 268 270 272 278 282 288 291 293 296 296 297 296 295 296 293 289 286 284 284 284 284 284 283 283
245 240 240 242 245 252 259 272 277 274 256 266 273 270 272 280 289 289 288 288 291 299 299 298 298 295 296 293 290 290 287 287 284 283 282 281 280 279
233 228 232 234 249 260 277 264 275 270 259 269 275 282 287 292 293 297 298 300 302 306 302 299 302 295 297 292 296 293 292 291 289 287 284 283 282 280
199 194 200 219 244 260 265 263 260 267 271 279 287 295 300 307 311 311 309 296 299 302 297 301 299 303 301 300 301 295 294 293 292 291 289 286 283 281
165 184 206 213 243 246 256 260 266 277 290 295 296 308 291 301 302 288 289 296 298 304 304 307 297 304 309 311 304 301 299 297 293 290 286 283 282 279
171 185 196 215 241 282 277 285 289 292 290 291 287 296 307 289 283 287 282 296 307 314 307 307 316 313 314 312 309 310 308 305 297 290 287 285 284 283
161 185 140 303 295 291 294 295 296 298 293 288 284 278 281 283 278 287 297 301 302 310 311 309 324 312 317 312 313 315 312 305 300 294 286 284 282 281
67 22 318 296 296 301 303 305 308 305 300 289 283 289 289 284 280 287 294 297 299 310 307 293 320 313 319 315 314 311 310 313 313 306 296 287 285 282
323 304 308 312 309 309 305 304 307 301 294 297 305 298 290 290 295 295 298 297 300 312 320 305 319 309 314 315 322 323 318 317 313 308 304 296 289 285
335 319 314 317 321 318 313 305 301 300 299 305 307 301 302 302 297 293 295 295 302 311 311 307 315 317 316 317 318 318 321 324 319 313 308 299 292 286
323 320 322 324 314 306 303 302 301 302 304 299 305 306 302 298 296 290 289 293 298 302 323 311 306 308 302 307 314 318 323 324 322 319 315 305 298 289
323 316 313 314 313 313 312 310 307 303 303 308 311 309 304 304 302 297 300 302 304 307 317 307 299 307 307 307 308 317 320 319 321 320 320 313 303 296
323 323 321 319 316 314 310 306 304 307 310 309 308 309 310 312 308 307 314 318 312 314 319 314 307 311 307 305 307 311 317 323 322 321 321 316 312 310
325 324 321 315 311 309 304 303 304 306 306 308 313 319 318 316 314 317 321 323 318 320 325 324 320 313 308 309 310 311 318 309 320 321 324 318 316 315
318 318 321 318 313 305 303 299 300 303 309 315 319 321 320 316 316 321 323 324 323 325 326 330 326 319 309 312 311 312 314 315 319 320 319 314 311 310
319 317 314 310 303 294 290 292 299 307 314 318 319 321 320 316 315 320 328 330 325 324 325 330 328 325 320 315 312 312 311 310 314 315 309 304 305 308
312 306 307 300 292 290 295 303 309 315 317 322 324 324 321 315 314 319 327 330 329 324 325 326 322 318 315 306 316 307 301 315 316 315 315 308 303 304
308 303 299 290 286 290 298 304 310 316 321 322 324 323 322 317 313 317 324 327 328 322 318 323 324 327 315 309 312 317 320 313 311 311 315 312 304 304
299 297 294 286 281 286 294 302 311 318 320 322 323 324 322 321 317 316 319 323 322 326 324 328 331 330 320 321 306 306 314 314 313 306 313 311 309 310
298 293 290 286 281 282 289 297 305 313 320 321 322 322 321 319 319 316 317 322 324 326 326 328 330 327 323 316 307 309 312 318 320 316 312 308 304 290
298 291 288 286 282 282 287 294 302 310 316 317 318 320 320 319 319 317 319 323 325 325 327 322 323 323 319 316 312 309 310 314 319 320 318 319 315 312